Weather in Ashmyany

Belarus     54˚25′30″N   25˚56′14″E
temp.,
°C
wind,
m/s
gust,
m/s
humid.,
%
clouds,
%
prec.,
mm/h
press.,
hPa
HPBL,
m
1 december, tue
tue100:00−2˚ssw599594 0.1 1024392
03:00−1˚sw499295 0.2 1025473
06:00−1˚ssw4890100 0.1 1025322
09:00−4˚s369392 0.0 1027123
12:00−2˚s479175 0.0 1028342
15:00−2˚sse359138 0.0 1029278
18:00−5˚sse23920 0.0 103029
21:00−6˚sse23920 0.0 103145
2 december, wed
wed200:00−7˚sse22930 0.0 103224
03:00−7˚se22930 0.0 103321
06:00−7˚se23930 0.0 103122
09:00−7˚ese22920 0.0 103221
12:00−4˚ese35920 0.0 1031186
15:00−3˚e25920 0.0 1029208
18:00−4˚e349638 0.0 1028116
21:00−2˚e379768 0.1 1027338
3 december, thu
thu300:00−5˚se359684 0.1 1026116
03:00−6˚se359665 0.1 1025112
06:00−5˚se379773 0.1 1024190
09:00−4˚se499681 0.1 1023295
12:00−3˚sse5109490 0.1 1022530
15:00−2˚sse599192 0.1 1021588
18:00−2˚se5109396 0.1 1020583
21:00−1˚sse5119298 0.1 1020730
4 december, fri
fri400:00sse61291100 0.0 1019695
03:00sse71391100 0.0 1018695
06:00sse81389100 0.0 1017737
09:00se81488100 0.0 1016738
12:00+1˚se71494100 0.0 1016770
15:00+2˚se71495100 0.0 1015667
18:00+2˚se81792100 0.0 1015685
21:00+2˚se91889100 0.0 1015671
5 december, sat
sat500:00+2˚se91792100 0.0 1015584
03:00+2˚se81693100 0.0 1015543
06:00+2˚se81694100 0.0 1015578
09:00+2˚se81695100 0.1 1016581
12:00+3˚se81695100 0.1 1016594
15:00+3˚se81694100 0.3 1016574
18:00+3˚se71694100 0.0 1017577
21:00+3˚se71693100 0.0 1017482